Regional Weather Roundup
Issued by NWS Newport/Morehead, NC

Current Version | Previous Version | Graphics & Text | Print | Product List | Glossary On
Versions: 1 2 3 4 5 6 7 8 9 10 11 12 13 14 15 16 17 18 19 20 21 22 23 24 25 26 27 28 29 30 31 32 33 34 35 36 37 38 39 40 41 42 43 44 45 46 47 48 49 50
000 ASUS42 KMHX 231614 RWRMHX WEATHER ROUNDUP FOR EASTERN NORTH CAROLINA NATIONAL WEATHER SERVICE NEWPORT/MOREHEAD CITY NC 1100 AM EST TUE JAN 23 2018 NOTE: "FAIR" INDICATES FEW OR NO CLOUDS BELOW 12,000 FEET WITH NO SIGNIFICANT WEATHER AND/OR OBSTRUCTIONS TO VISIBILITY NCZ015>017-031-032-045>047-102-103-231700- NORTH COAST CITY SKY/WX TMP DP RH WIND PRES REMARKS EDENTON CLOUDY 67 64 90 SW15G22 29.80F ELIZABETH CITY CLOUDY 66 32 28 SW20G26 29.79F KITTY HAWK CLOUDY N/A N/A N/A SW14G26 29.82F HAZE MANTEO LGT RAIN 59 59 99 SW29G39 29.84F $$ NCZ045>047-081-094-103-104-231700- CENTRAL COAST CITY SKY/WX TMP DP RH WIND PRES REMARKS FRISCO NOT AVBL $$ NCZ095-097-098-100-101-231700- SOUTHERN COAST CITY SKY/WX TMP DP RH WIND PRES REMARKS BEAUFORT FOG 60 60 100 SW24G30 29.89F VSB 3/4 CEDAR ISLAND NOT AVBL JACKSONVILLE CLOUDY 68 65 90 SW14G22 29.86F PINEY ISLAND NOT AVBL WILMINGTON CLOUDY 65 62 90 SW15G25 29.88F $$ NCZ011>013-027>030-043-044-078>080-089-090>093-098-231700- COASTAL PLAIN CITY SKY/WX TMP DP RH WIND PRES REMARKS AHOSKIE LGT RAIN 64 64 100 SW6 29.77F CLINTON PTSUNNY 68 64 86 SW9G16 29.84F ELIZABETHTOWN NOT AVBL GOLDSBORO PTSUNNY 68 63 83 SW15G24 29.79F GREENVILLE PTSUNNY 68 63 83 SW16G25 29.83F HAVELOCK NOT AVBL KENANSVILLE CLOUDY 68 64 88 SW9G21 29.84F KINSTON CLOUDY 68 63 83 SW14G22 29.83F NEW BERN CLOUDY 66 64 93 SW14G24 29.86F RICHLANDS CLOUDY 69 64 84 S17G23 29.85F ROCKY MOUNT CLOUDY 67 64 90 SW17G26 29.79F WASHINGTON CLOUDY 68 64 86 SW13G23 29.82F WHITEVILLE CLOUDY 68 63 82 SW10G17 29.87F $$ AMZ130-135-150-152-154-156-158-170-250-252-270-ANZ085-086-088-633-658-670-231700- MARINE OBSERVATIONS STATION/POSITION TIME TEMP WIND PRES WAVE SWELL AIR SEA DIR/SP/G HT/PER HT/PER (UTC) (F) (DEG/KT/KT) (MB) (FT/S) (FT/S) CHESAPEAKE LIGHT NOT AVBL 64 E VA BEACH 1550 63 57 200/ 23/ 27 1009.4 7/ 6 DUCK 1536 61 41 190/ 23/ 29 1008.5 2 E DUCK 1600 41 N/A 4/ 7 OREGON INLET 1536 54 45 180/ 18/ 22 1010.5 13E OREGON INLT 1548 41 N/A 7/ 7 2/11 HATTERAS CG 1536 67 54 200/ 11/ 15 1011.8 DIAMOND BUOY 1550 73 70 190/ 29/ 39 1012.1 10/ 7 CAPE LOOKOUT 1600 230/ 15/ 21 1012.7 BEAUFORT LAB 1536 59 49 210/ 12/ 17 1012.6 30 SE NEW RVR IN 1508 63 58 220/ 16/ 21 1013.4 30 SE NEW RVR IN 1600 58 N/A 9/ 8 27 SE WRIGHTSVLE 1508 63 61 230/ 19/ 25 1013.0 5 SE WRIGHTSVLE 1508 55 47 230/ 14/ 17 1012.7 225 S CAPE HAT 1550 71 70 180/ 17/ 23 1018.0 6/ 6 2/10 41 SE CHARLESTON 1550 67 69 230/ 23/ 31 1014.2 7/ 7 $$

USA.gov is the U.S. government's official web portal to all federal, state and local government web resources and services.